Aérodrome :
LOGIN :

S'inscrire | Disclaimer

   EN    FR    IT 

 










Légende :    VFR   VFR Marginal   IFR   IFR Intensif   IFR Très Intensif
Visi : 
Plafond : 
>= 8 km
>= 3000ft
5 à 8 km
1000 à 3000 ft
1500m à 5 km
500 à 1000 ft
800 à 1500m
200 à 500 ft
< 800m
< 200 ft
Symboles :   Orages  Brouillard  Fortes neiges  Fortes précipitations  Vent > 20 kt
SIGMETs :   Divers  Orages  Givrage  Turbulence  Onde Orograph.  Cendres Volcan.






- Altitude de l'aérodrome : 353 ft
- Code IATA : ZAG


LDZA - Zagreb Pleso

DERNIER METAR :
  • 070300Z 28002KT CAVOK 13/12 Q1006 NOSIG

METARs EXPIRÉS :
  • 070230Z 00000KT CAVOK 14/13 Q1006 NOSIG
  • 070200Z 22004KT 9999 FEW045 14/13 Q1006 NOSIG
  • 070130Z 20002KT 9999 FEW045 14/13 Q1006 NOSIG
  • 070100Z VRB02KT CAVOK 15/14 Q1006 NOSIG
  • 070030Z 24002KT CAVOK 15/14 Q1006 NOSIG

TAF TAF LDZA
Valide du 07 à 00h jusqu'au 08 à 00h UTC


062325Z 0700/0800 22005KT CAVOK TX27/0713Z TN12/0703Z
PROB30
TEMPO 0702/0706 4000 MIFG BR
BECMG 0709/0711 22009KT
PROB30
TEMPO 0716/0719 25018G30KT FEW060CB
ATIS : +385 1 6-259-214



MET'MAP, la Météo Aéronautique d'un coup d'oeil ! - Copyright ORBIFLY Décembre 2007 - Disclaimer

ORBIFLY MET'MAP TEAM :

Programmation & Développement : Alexandra Zaïnal
Sur une idée originale de : Baudouin d'Aumeries
Assistance à la programmation : Marc-Olivier Méhu
Soutien technique & logistique : Manuel Goepfert

Contact : metmap@orbifly.com




SOURCES & CREDITS :

   NOAA